Weather History for LEGE - February, 2013

Change the Weather History Date:

Saturday, February 16, 2013

  Actual Average Record
Temperature  
Mean Temperature 48 °F -  
Max Temperature 53 °F 60 °F 73 °F (2007)
Min Temperature 42 °F 38 °F 26 °F (2003)
Degree Days  
Heating Degree Days 18    
Moisture  
Dew Point 39 °F    
Average Humidity 73    
Maximum Humidity 87    
Minimum Humidity 54    
Precipitation  
Precipitation 0.00 in 0.07 in - ()
Sea Level Pressure  
Sea Level Pressure 30.12 in    
Wind  
Wind Speed 1 mph ()    
Max Wind Speed 9 mph    
Max Gust Speed -    
Visibility 6.6 miles    
Events      
Averages and records for this station are not official NWS values.
T = Trace of Precipitation, MM = Missing Value Source: Averaged Metar Reports

Daily Weather History Graph

Daily Weather History Graph

Search for Another Location

Airport or City:

Trip Planner

Search our weather history database for the weather conditions in past years. The results will help you decide how hot, cold, wet, or windy it might be!

Date:

Astronomy

Feb. 16, 2013 Rise Set
Actual Time 7:43 AM CET 6:23 PM CET
Civil Twilight 7:14 AM CET 6:51 PM CET
Nautical Twilight 6:42 AM CET 7:24 PM CET
Astronomical Twilight 6:09 AM CET 7:56 PM CET
Moon 10:39 AM CET (2/16) 12:14 AM CET (2/16)
Length of Visible Light 11h 37m
Length of Day
10h 39m
Waxing Crescent, 37% of the Moon is Illuminated
Feb 16
Waxing Crescent
Feb 17
First Quarter
Feb 25
Full
Mar 4
Last Quarter
Mar 11
New

Hourly Weather History & Observations

Time (CET) Temp. Dew Point Humidity Pressure Visibility Wind Dir Wind Speed Gust Speed Precip Events Conditions
12:00 AM 48.2 °F 35.6 °F 62% 30.15 in 6.2 mi Variable 1.2 mph - N/A   Mostly Cloudy
1:00 AM 49 °F 38 °F 54% 30.17 in 12 mi Calm Calm - -   Partly Cloudy
1:00 AM 48.2 °F 35.6 °F 62% 30.15 in 6.2 mi Calm Calm - N/A   Mostly Cloudy
1:30 AM 48.2 °F 35.6 °F 62% 30.15 in 6.2 mi Calm Calm - N/A   Mostly Cloudy
2:00 AM 46.4 °F 35.6 °F 66% 30.15 in 6.2 mi Calm Calm - N/A   Mostly Cloudy
2:30 AM 46.4 °F 35.6 °F 66% 30.15 in 6.2 mi Calm Calm - N/A   Mostly Cloudy
3:00 AM 46.4 °F 35.6 °F 66% 30.15 in 6.2 mi WNW 1.2 mph - N/A   Mostly Cloudy
3:30 AM 46.4 °F 35.6 °F 66% 30.15 in 6.2 mi NNW 1.2 mph - N/A   Mostly Cloudy
4:00 AM 46.4 °F 35.6 °F 66% 30.15 in 6.2 mi NW 1.2 mph - N/A   Mostly Cloudy
4:30 AM 46.4 °F 35.6 °F 66% 30.12 in 6.2 mi NW 2.3 mph - N/A   Mostly Cloudy
5:00 AM 44.6 °F 37.4 °F 76% 30.12 in 6.2 mi Variable 1.2 mph - N/A   Mostly Cloudy
5:30 AM 46.4 °F 37.4 °F 71% 30.12 in 6.2 mi Calm Calm - N/A   Mostly Cloudy
6:00 AM 44.6 °F 37.4 °F 76% 30.12 in 6.2 mi Calm Calm - N/A   Mostly Cloudy
6:30 AM 44.6 °F 37.4 °F 76% 30.12 in 6.2 mi Calm Calm - N/A   Scattered Clouds
7:00 AM 45 °F 38 °F 70% 30.13 in 12 mi Calm Calm - -   Mostly Cloudy
7:00 AM 42.8 °F 37.4 °F 81% 30.12 in 6.2 mi Variable 1.2 mph - N/A   Scattered Clouds
7:30 AM 42.8 °F 37.4 °F 81% 30.12 in 6.2 mi Calm Calm - N/A   Scattered Clouds
8:00 AM 42.8 °F 37.4 °F 81% 30.12 in 6.2 mi NW 1.2 mph - N/A   Mostly Cloudy
8:30 AM 42.8 °F 39.2 °F 87% 30.12 in 6.2 mi Calm Calm - N/A   Mostly Cloudy
9:00 AM 44.6 °F 39.2 °F 81% 30.15 in 6.2 mi NNE 2.3 mph - N/A   Mostly Cloudy
9:30 AM 44.6 °F 39.2 °F 81% 30.15 in 6.2 mi Variable 1.2 mph - N/A   Mostly Cloudy
10:00 AM 46.4 °F 39.2 °F 76% 30.15 in 6.2 mi Calm Calm - N/A   Scattered Clouds
10:30 AM 48.2 °F 35.6 °F 62% 30.15 in 6.2 mi Calm Calm - N/A   Scattered Clouds
11:00 AM 50.0 °F 37.4 °F 62% 30.15 in 6.2 mi Variable 1.2 mph - N/A   Mostly Cloudy
11:30 AM 50.0 °F 39.2 °F 66% 30.15 in 6.2 mi Variable 2.3 mph - N/A   Mostly Cloudy
12:30 PM 50.0 °F 41.0 °F 71% 30.12 in 6.2 mi Variable 2.3 mph - N/A   Mostly Cloudy
1:00 PM 53 °F 44 °F 62% 30.13 in - South 2.3 mph - -  
1:00 PM 50.0 °F 42.8 °F 76% 30.12 in 6.2 mi Variable 1.2 mph - N/A   Mostly Cloudy
1:30 PM 50.0 °F 44.6 °F 82% 30.12 in 6.2 mi South 4.6 mph - N/A   Mostly Cloudy
2:00 PM 50.0 °F 44.6 °F 82% 30.09 in 6.2 mi SSE 5.8 mph - N/A   Mostly Cloudy
2:30 PM 50.0 °F 44.6 °F 82% 30.09 in 6.2 mi South 8.1 mph - N/A   Mostly Cloudy
3:00 PM 50.0 °F 42.8 °F 76% 30.09 in 6.2 mi South 9.2 mph - N/A   Mostly Cloudy
3:30 PM 50.0 °F 42.8 °F 76% 30.09 in 6.2 mi South 8.1 mph - N/A   Mostly Cloudy
4:00 PM 50.0 °F 42.8 °F 76% 30.09 in 6.2 mi South 9.2 mph - N/A   Mostly Cloudy
4:30 PM 50.0 °F 42.8 °F 76% 30.09 in 6.2 mi South 6.9 mph - N/A   Mostly Cloudy
5:00 PM 50.0 °F 41.0 °F 71% 30.09 in 6.2 mi SE 5.8 mph - N/A   Mostly Cloudy
5:30 PM 50.0 °F 42.8 °F 76% 30.09 in 6.2 mi SSE 3.5 mph - N/A   Mostly Cloudy
6:00 PM 48.2 °F 41.0 °F 76% 30.09 in 6.2 mi SE 4.6 mph - N/A   Mostly Cloudy
6:30 PM 48.2 °F 41.0 °F 76% 30.09 in 6.2 mi SE 2.3 mph - N/A   Mostly Cloudy
7:00 PM 50 °F 42 °F 65% 30.09 in 11 mi Calm Calm - -   Overcast
7:00 PM 48.2 °F 41.0 °F 76% 30.09 in 6.2 mi Variable 1.2 mph - N/A   Mostly Cloudy
7:30 PM 48.2 °F 41.0 °F 76% 30.09 in 6.2 mi Calm Calm - N/A   Mostly Cloudy
8:00 PM 48.2 °F 41.0 °F 76% 30.09 in 6.2 mi Calm Calm - N/A   Mostly Cloudy
10:00 PM 48.2 °F 41.0 °F 76% 30.09 in 6.2 mi Calm Calm - N/A   Mostly Cloudy
10:30 PM 48.2 °F 41.0 °F 76% 30.09 in 6.2 mi Calm Calm - N/A   Mostly Cloudy
11:00 PM 46.4 °F 41.0 °F 81% 30.09 in 6.2 mi NE 1.2 mph - N/A   Mostly Cloudy
11:30 PM 46.4 °F 39.2 °F 76% 30.09 in 6.2 mi Variable 2.3 mph - N/A   Mostly Cloudy